Home > Time Zones > World Clock > Weather > China > Sian > Past weeks

Flag for China Weather past 2 weeks in Sian, Shaanxi, China

Now
68 °F

Haze.


Feels Like: 68 °F
Forecast: 51 / 70 °F
Wind: 8 mph from Northeast

Location: Xian/Xianyang

Current Time: Mar 31, 2015 at 4:28:29 PM

Latest Report: Mar 31, 2015 at 3:00 PM


Visibility: 2 mi

Pressure: 29.65 "Hg

Humidity: 69%

Dew point: 57 °F

Location of SianLocation

Historic Weather in Sian — Graph

°F

Sian temperature yesterday

Maximum temperature yesterday: 73 °F (at 4:00 PM)
Minimum temperature yesterday: 54 °F (at 12:00 AM)
Average temperature yesterday: 62 °F

Past Weeks' High & Low Weather Summary

 TemperatureHumidityPressure
High75 °F (Mar 29, 4:00 PM)100% (Mar 25, 12:00 AM)30.45 "Hg (Mar 25, 12:00 AM)
Low37 °F (Mar 21, 7:00 AM)38% (Mar 16, 3:00 PM)29.50 "Hg (Mar 30, 5:00 PM)
Average53 °F77%30.09 "Hg
* Reported Mar 16 3:00 PM — Mar 31 3:00 PM, Sian, Weather by CustomWeather, © 2015

Note: Actual official high and low records may vary slightly from our data, if they occured in-between our weather recording intervals... More about our weather records

Advertising

Sian weather history for previous 24 hours

 ConditionsComfort  
Time TempWeatherWind HumidityBarometerVisibility
3:00 PM
Tue, Mar 31
68 °FHaze.8 mph69%29.65 "Hg2 mi
2:00 PM66 °FFog.6 mph73%29.68 "Hg2 mi
1:00 PM66 °FFog.8 mph73%29.71 "Hg2 mi
12:00 PM64 °FFog.15 mph73%29.71 "Hg2 mi
11:00 AM64 °FFog.8 mph73%29.74 "Hg2 mi
10:00 AM61 °FFog.8 mph83%29.74 "Hg2 mi
9:00 AM61 °FFog.6 mph83%29.71 "Hg2 mi
8:00 AM59 °FFog.8 mph88%29.68 "Hg2 mi
7:00 AM59 °FFog.8 mph82%29.65 "Hg2 mi
6:00 AM57 °FFog.6 mph88%29.65 "Hg3 mi
5:00 AM57 °FFog.6 mph82%29.62 "Hg3 mi
4:00 AM59 °FFog.3 mph82%29.62 "Hg3 mi
3:00 AM54 °FFog.6 mph94%29.59 "Hg3 mi
2:00 AM52 °FFog.No wind94%29.62 "Hg3 mi
1:00 AM52 °FFog.No wind94%29.65 "Hg3 mi
12:00 AM55 °FFog.No wind88%29.65 "Hg3 mi
11:00 PM
Mon, Mar 30
57 °FFog.1 mph88%29.62 "Hg3 mi
10:00 PM57 °FFog.3 mph88%29.59 "Hg3 mi
9:00 PM59 °FFog.1 mph82%29.59 "Hg3 mi
8:00 PM63 °FClear.3 mph73%29.56 "Hg4 mi
7:00 PM66 °FClear.1 mph68%29.53 "Hg4 mi
6:00 PM72 °FClear.6 mph57%29.50 "Hg4 mi
5:00 PM73 °FClear.10 mph53%29.50 "Hg4 mi
4:00 PM73 °FClear.10 mph50%29.53 "Hg4 mi
Weather by CustomWeather, © 2015

See weather overviewHow to use our weather pages